Yaogan 40-02-01

operational
NORAD ID: 63918 Int'l Des: 2025-096 Owner: CAST Country: CN Constellation: yaogan
LEOCIRCULARPOLAR

Yaogan 40-02-01について

説明を読み込み中...

リアルタイム位置

3D地球を読み込み中...

次回通過

高度履歴

Altitude vs Time

uPlot chart will show altitude changes over time

軌道要素

1 63918U 25096A 25340.93989402 .00000284 00000-0 14407-3 0 9990
2 63918 85.9929 274.1393 0001937 76.5206 283.6193 14.12395671 29435
Epoch: Dec 6, 2025 • Age: 10 hours

現在のステータス

高度 854.9 km
速度 7.42 km/s
衛星直下点 -5.62°S, 66.19°E
打ち上げ日 May 11, 2025
運用期間 0.5 years
タイプ military

技術仕様

分類 Payload
質量 500.00 kg
乾燥質量 500.00 kg
総質量 500.00 kg
長さ 2.00 m
直径 1.50 m
スパン 4.00 m
形状 Box + 2 Pan
製造者 DFHZ
バスタイプ YG40
フェーズステータス In Orbit
所有者/国 CAST/CN

大規模コンステレーション

Loading constellations...